Change the Weather History Date:

Wednesday, February 6, 2013

  Actual Average Record
Temperature  
Mean Temperature 14 °F -  
Max Temperature 25 °F 26 °F 46 °F (2012)
Min Temperature 3 °F 10 °F -14 °F (2014)
Degree Days  
Heating Degree Days 51    
Moisture  
Dew Point 12 °F    
Average Humidity 79    
Maximum Humidity 88    
Minimum Humidity 72    
Precipitation  
Precipitation 0.01 in - - ()
Sea Level Pressure  
Sea Level Pressure 30.03 in    
Wind  
Wind Speed 5 mph (East)    
Max Wind Speed 10 mph    
Max Gust Speed -    
Visibility 6 miles    
Events Snow    
Averages and records for this station are not official NWS values.
T = Trace of Precipitation, MM = Missing Value Source: NWS Daily Summary

Daily Weather History Graph

Daily Weather History Graph

Search for Another Location

Airport or City:

Trip Planner

Search our weather history database for the weather conditions in past years. The results will help you decide how hot, cold, wet, or windy it might be!

Date:

Astronomy

Feb. 06, 2013 Rise Set
Actual Time 7:26 AM CST 5:29 PM CST
Civil Twilight 6:56 AM CST 6:00 PM CST
Nautical Twilight 6:21 AM CST 6:35 PM CST
Astronomical Twilight 5:47 AM CST 7:09 PM CST
Moon 4:16 AM CST (2/6) 1:43 PM CST (2/6)
Length of Visible Light 11h 04m
Length of Day
10h 03m
Waning Crescent, 17% of the Moon is Illuminated
Feb 6
Waning Crescent
Feb 10
New
Feb 17
First Quarter
Feb 25
Full
Mar 4
Last Quarter

Hourly Weather History & Observations

Time (CST) Temp. Windchill Dew Point Humidity Pressure Visibility Wind Dir Wind Speed Gust Speed Precip Events Conditions
1:53 AM 6.1 °F -4.3 °F 1.9 °F 83% 30.14 in 10.0 mi WSW 5.8 mph - N/A   Overcast
3:53 AM 3.0 °F - -0.9 °F 84% 30.11 in 9.0 mi Calm Calm - N/A   Clear
4:53 AM 3.9 °F - -0.9 °F 80% 30.10 in 9.0 mi Calm Calm - N/A   Clear
5:53 AM 3.9 °F - 1.0 °F 88% 30.13 in 10.0 mi Calm Calm - N/A   Mostly Cloudy
6:53 AM 5.0 °F - 1.0 °F 84% 30.12 in 9.0 mi Calm Calm - N/A   Partly Cloudy
7:53 AM 8.1 °F - 3.9 °F 83% 30.12 in 8.0 mi Calm Calm - N/A   Overcast
8:53 AM 10.9 °F 4.7 °F 7.0 °F 84% 30.12 in 9.0 mi ESE 3.5 mph - N/A   Overcast
9:53 AM 12.9 °F 5.2 °F 9.0 °F 84% 30.12 in 6.0 mi ESE 4.6 mph - 0.00 in Snow Light Snow
9:59 AM 14.0 °F 6.5 °F 8.6 °F 79% 30.06 in 2.5 mi East 4.6 mph - 0.00 in Snow Light Snow
10:08 AM 14.0 °F 8.2 °F 8.6 °F 79% 30.06 in 1.2 mi East 3.5 mph - 0.00 in Snow Light Snow
10:21 AM 15.8 °F 6.1 °F 10.4 °F 79% 30.04 in 0.5 mi East 6.9 mph - 0.00 in Snow Snow
10:25 AM 15.8 °F 7.2 °F 10.4 °F 79% 30.04 in 0.2 mi East 5.8 mph - 0.01 in Snow Heavy Snow
10:35 AM 15.8 °F 6.1 °F 10.4 °F 79% 30.03 in 0.5 mi East 6.9 mph - 0.01 in Snow Snow
10:53 AM 16.0 °F 5.3 °F 10.9 °F 81% 30.09 in 1.8 mi East 8.1 mph - 0.01 in Snow Light Snow
11:05 AM 15.8 °F 5.1 °F 12.2 °F 86% 30.02 in 4.0 mi East 8.1 mph - 0.00 in   Overcast
11:53 AM 19.0 °F 7.5 °F 14.0 °F 81% 30.05 in 7.0 mi ESE 10.4 mph - 0.00 in   Scattered Clouds
12:53 PM 21.9 °F 11.0 °F 15.1 °F 75% 30.01 in 7.0 mi East 10.4 mph - N/A   Overcast
1:53 PM 25.0 °F 14.8 °F 18.0 °F 75% 29.99 in 7.0 mi ESE 10.4 mph - N/A   Overcast
2:53 PM 25.0 °F 16.3 °F 17.1 °F 72% 29.96 in 5.0 mi East 8.1 mph - N/A   Haze
3:53 PM 25.0 °F 15.5 °F 18.0 °F 75% 29.97 in 6.0 mi ENE 9.2 mph - N/A   Haze
4:23 PM 24.8 °F 14.6 °F 17.6 °F 74% 29.90 in 6.0 mi East 10.4 mph - N/A   Haze
4:53 PM 25.0 °F 14.8 °F 18.0 °F 75% 29.96 in 6.0 mi East 10.4 mph - N/A   Haze
5:12 PM 24.8 °F 16.1 °F 17.6 °F 74% 29.91 in 6.0 mi East 8.1 mph - N/A   Haze
5:53 PM 25.0 °F 15.5 °F 18.0 °F 75% 29.96 in 7.0 mi East 9.2 mph - N/A   Clear
6:53 PM 25.0 °F 17.1 °F 19.0 °F 78% 29.97 in 7.0 mi East 6.9 mph - N/A   Clear
7:53 PM 24.1 °F 15.2 °F 18.0 °F 77% 29.98 in 6.0 mi ENE 8.1 mph - N/A   Haze
8:53 PM 24.1 °F 17.0 °F 18.0 °F 77% 29.98 in 6.0 mi ENE 5.8 mph - N/A   Haze
9:53 PM 23.0 °F 15.8 °F 18.0 °F 81% 29.99 in 6.0 mi NE 5.8 mph - N/A   Haze
10:53 PM 23.0 °F 14.7 °F 18.0 °F 81% 30.00 in 5.0 mi NE 6.9 mph - N/A   Haze
11:53 PM 23.0 °F 15.8 °F 18.0 °F 81% 30.00 in 5.0 mi NE 5.8 mph - N/A   Haze